User: anonymous   Login
Location: Unspecified
(0.0000°N, 0.0000°E)
Time: 22:59:19
(UTC+00:00)
Language:

STARLINK-11729 [DTC] - Orbit

View from above orbital plane
View from above orbital plane
View from above satellite
View from above satellite

Ground track
Ground track

The orbit is defined by the following mean orbital elements,

1 64073U          26145.63028764 +.00000000 +00000-0 +21152-2 0 00000
2 64073  43.0010 354.9225 0001439 255.5266 104.5442 15.70933699    00
Epoch (UTC): 25 May 2026 15:07:36
Eccentricity: 0.0001439
inclination: 43.0010°
perigee height: 355 km
apogee height: 357 km
right ascension of ascending node: 354.9225°
argument of perigee: 255.5266°
revolutions per day: 15.70933699
mean anomaly at epoch: 104.5442°

The dashed part of the orbit path shows where the satellite is in the earth's shadow,  

DLR